Terminal Aerodrome Forecast
Issued by NWS St Louis, MO

Home | Current Version | Previous Version | Text Only | Print | Product List | Glossary On
Versions: 1 2 3 4 5 6 7 8 9 10 11 12 13 14 15 16 17 18 19 20 21 22 23 24 25 26 27
000
FTUS43 KLSX 031120
TAFSTL
TAF
KSTL 031120Z 0312/0418 00000KT P6SM BKN250
     FM040800 12004KT 6SM -RA OVC060
     FM041200 VRB03KT 5SM -RASN OVC020=

USA.gov is the U.S. government's official web portal to all federal, state and local government web resources and services.